Hourly Data Report for August 12, 2005

TORONTO CITY
ONTARIO

43°40'00.000" N
79°24'00.000" W
112.50 m
6158355
71508
XTO

Download Data

Hourly Data (August 2005)
Hourly Data Report for August 12, 2005
TIME
LST
Temp Definition
°C
Dew Point Definition
°C
Rel Hum Definition
%
Precip. Amount Definition
mm

Wind Dir Definition
10's deg

Wind Spd Definition
km/h
Visibility Definition
km
Stn Press Definition
kPa
Hmdx Definition


Wind Chill Definition


Weather Definition


00:00 22.1 15.4 66   LegendMM LegendMM   100.30 26   LegendNANA
01:00 22.1 15.2 65   LegendMM LegendMM   100.28 26   LegendNANA
02:00 21.8 15.6 68   LegendMM LegendMM   100.20 26   LegendNANA
03:00 21.9 15.8 68   LegendMM LegendMM   100.18 26   LegendNANA
04:00 21.7 15.0 66   LegendMM LegendMM   100.18 26   LegendNANA
05:00 21.5 16.2 72   LegendMM LegendMM   100.15 26   LegendNANA
06:00 21.8 16.2 70   LegendMM LegendMM   100.13 27   LegendNANA
07:00 22.1 17.4 75   LegendMM LegendMM   100.10 28   LegendNANA
08:00 21.6 18.5 83   LegendMM LegendMM   100.04 28   LegendNANA
09:00 21.5 20.3 93   LegendMM LegendMM   100.07 29   LegendNANA
10:00 21.6 19.7 89   LegendMM LegendMM   100.00 29   LegendNANA
11:00 21.6 20.0 91   LegendMM LegendMM   99.92 29   LegendNANA
12:00 21.2 20.5 96   LegendMM LegendMM   99.87 29   LegendNANA
13:00 21.8 21.2 96   LegendMM LegendMM   99.81 30   LegendNANA
14:00 23.1 22.0 94   LegendMM LegendMM   99.73 32   LegendNANA
15:00 23.6 22.8 95   LegendMM LegendMM   99.68 34   LegendNANA
16:00 25.0 23.3 90   LegendMM LegendMM   99.60 36   LegendNANA
17:00 25.3 23.6 90   LegendMM LegendMM   99.56 36   LegendNANA
18:00 25.8 23.8 89   LegendMM LegendMM   99.54 37   LegendNANA
19:00 25.1 23.3 90   LegendMM LegendMM   99.54 36   LegendNANA
20:00 24.1 23.0 94   LegendMM LegendMM   99.57 34   LegendNANA
21:00 25.5 21.9 81   LegendMM LegendMM   99.65 35   LegendNANA
22:00 24.5 21.5 83   LegendMM LegendMM   99.67 33   LegendNANA
23:00 24.9 21.2 80   LegendMM LegendMM   99.71 33   LegendNANA

Notes on Data Quality.

Legend

  • E = Estimated
  • M = Missing
  • NA = Not Available*
  • [empty] = Indicates an unobserved value
Date modified: